[[{"header":{"parameterUnit":"m.s-1","parameterCategory":1,"la1":30.2992,"la2":30.254,"lo1":-89.0895,"lo2":-89.0443,"dy":0.0025,"dx":0.0025,"nx":19,"ny":19,"refTime":"2026-03-23T21:00:00:Z","depth":0,"parameterNumber":2,"parameterNumberName":"U-component_of_WINDS"},"data":[0,0,0,-6.324,-6.3245,-6.3501,-6.3502,-6.3821,-6.3824,0,0,0,0,0,0,0,0,0,0,0,-6.3161,-6.3163,-6.3239,-6.3246,-6.3501,-6.3502,-6.3821,-6.3824,0,0,0,0,0,0,0,0,0,0,0,-6.316,-6.3162,-6.3165,-6.3247,-6.3501,-6.3502,-6.382,-6.3629,0,0,0,0,0,0,0,0,0,0,-6.3382,-6.3306,-6.3162,-6.3165,-6.3248,-6.3501,-6.3502,-6.362,-6.3641,-6.3703,0,-6.3757,0,-6.3796,-6.3845,-6.3846,0,0,0,-6.3247,-6.3289,-6.3361,-6.3165,-6.325,-6.35,-6.3386,-6.3632,-6.3656,-6.373,-6.3762,-6.3774,-6.3801,-6.3847,-6.3849,-6.4199,-6.4201,0,0,-6.3233,-6.3204,-6.3345,-6.3377,-6.3339,-6.3378,-6.3394,-6.3647,-6.3679,-6.3763,-6.3782,-6.3807,-6.3849,-6.3852,-6.4198,-6.42,0,0,0,-6.3192,-6.3194,-6.3261,-6.3363,-6.341,-6.3385,-6.3404,-6.3667,-6.3692,-6.3785,-6.381,-6.3851,-6.3855,-6.4196,-6.4198,-6.4245,0,0,0,-6.3183,-6.317,-6.3254,-6.3239,-6.3405,-6.3542,-6.3419,-6.3674,-6.3704,-6.3809,-6.3851,-6.3858,-6.4194,-6.4197,-6.424,-6.427,0,0,0,-6.3145,-6.3165,-6.3202,-6.3237,-6.3346,-6.3539,-6.3578,-6.3681,-6.3719,-6.3846,-6.3859,-6.4193,-6.4197,-6.4236,-6.4263,-6.4351,0,0,0,-6.3095,-6.3239,-6.3202,-6.3373,-6.3344,-6.3568,-6.3576,-6.3744,-6.3859,-6.3853,-6.4195,-6.4198,-6.4234,-6.4258,-6.4346,-6.4417,-6.4445,0,0,-6.326,-6.3258,-6.3361,-6.3335,-6.3558,-6.3531,-6.3761,-6.3893,-6.3932,-6.4107,-6.4116,-6.4242,-6.4262,-6.435,-6.4621,-6.4643,0,0,0,-6.3403,-6.3476,-6.3541,-6.3651,-6.3758,-6.385,-6.3952,-6.4001,-6.4153,-6.4017,-6.4301,-6.4314,-6.4367,-6.4401,-6.442,-6.4466,-6.4215,-6.4214,-6.4214,-6.3589,-6.3633,-6.3806,-6.3881,-6.3988,-6.4093,-6.4182,-6.4266,-6.4278,-6.4345,-6.4395,-6.4554,-6.4594,-6.4609,-6.4656,-6.4441,-6.4441,-6.4441,-6.4441,-6.383,-6.3939,-6.3956,-6.4128,-6.4174,-6.4319,-6.4427,-6.4431,-6.4571,-6.452,-6.4568,-6.4503,-6.4631,-6.4674,-6.4445,-6.4444,-6.4444,-6.4444,-6.4443,-6.3953,-6.4012,-6.4073,-6.4237,-6.4359,-6.4432,-6.4566,-6.4604,-6.464,-6.4689,-6.4744,-6.4744,-6.4744,-6.4714,-6.4715,-6.4715,-6.4716,-6.4716,-6.4717,-6.4053,-6.412,-6.423,-6.4358,-6.4434,-6.4539,-6.4649,-6.4725,-6.4817,-6.4834,-6.4834,-6.4837,-6.4638,-6.4584,-6.4725,-6.4724,-6.4723,-6.4722,-6.4721,-6.4271,-6.4229,-6.4397,-6.4474,-6.4628,-6.4746,-6.4796,-6.4946,-6.5015,-6.508,-6.5076,-6.4924,-6.4923,-6.4908,-6.4863,-6.5068,-6.5068,-6.5068,-6.5068,-6.4369,-6.4376,-6.4557,-6.4677,-6.4799,-6.4862,-6.505,-6.5138,-6.5222,-6.5267,-6.5245,-6.5191,-6.5174,-6.5183,-6.5162,-6.512,-6.5386,-6.5387,-6.5387,-6.4504,-6.4524,-6.4676,-6.476,-6.4885,-6.4991,-6.5168,-6.5304,-6.5391,-6.5401,-6.5302,-6.5289,-6.5202,-6.5173,-6.5171,-6.5139,-6.5063,0,0]},{"header":{"parameterUnit":"m.s-1","parameterCategory":1,"la1":30.2992,"la2":30.254,"lo1":-89.0895,"lo2":-89.0443,"dy":0.0025,"dx":0.0025,"nx":19,"ny":19,"refTime":"2026-03-23T21:00:00:Z","depth":0,"parameterNumber":3,"parameterNumberName":"V-component_of_WINDS"},"data":[0,0,0,1.7078,1.7079,1.7094,1.7094,1.7108,1.7108,0,0,0,0,0,0,0,0,0,0,0,1.7071,1.7071,1.7078,1.7079,1.7093,1.7094,1.7108,1.7108,0,0,0,0,0,0,0,0,0,0,0,1.7071,1.7071,1.7071,1.7079,1.7093,1.7094,1.7108,1.7098,0,0,0,0,0,0,0,0,0,0,1.7084,1.7075,1.7071,1.7071,1.7079,1.7093,1.7094,1.7098,1.7098,1.7099,0,1.7099,0,1.7104,1.7108,1.7108,0,0,0,1.708,1.7074,1.7081,1.7071,1.7079,1.7093,1.7087,1.7098,1.7099,1.71,1.7099,1.71,1.7104,1.7108,1.7108,1.7109,1.7109,0,0,1.7079,1.7072,1.708,1.7082,1.708,1.7087,1.7088,1.7099,1.7097,1.7099,1.71,1.7104,1.7108,1.7109,1.7109,1.7109,0,0,0,1.7076,1.7071,1.7078,1.7081,1.7084,1.7087,1.7088,1.7096,1.7099,1.7101,1.7104,1.7109,1.7109,1.7109,1.7109,1.7099,0,0,0,1.7075,1.7069,1.7077,1.7073,1.7084,1.7091,1.7085,1.7099,1.71,1.7104,1.7109,1.7109,1.7109,1.7109,1.71,1.7095,0,0,0,1.7071,1.7069,1.707,1.7073,1.7079,1.7091,1.7094,1.7099,1.7102,1.7108,1.7109,1.7109,1.7109,1.71,1.7096,1.7094,0,0,0,1.7064,1.706,1.707,1.7067,1.7079,1.7085,1.7094,1.7098,1.7103,1.7109,1.7109,1.7109,1.71,1.7096,1.7094,1.7091,1.7089,0,0,1.7054,1.7058,1.7057,1.7067,1.707,1.7083,1.7084,1.7094,1.71,1.7106,1.7106,1.71,1.7096,1.7094,1.7081,1.7079,0,0,0,1.7052,1.7051,1.7053,1.7058,1.7067,1.7074,1.7085,1.7089,1.7095,1.7102,1.7099,1.7097,1.7096,1.7095,1.7093,1.7093,1.7108,1.7108,1.7108,1.7026,1.7037,1.7037,1.705,1.7055,1.7068,1.7073,1.708,1.7088,1.7087,1.7088,1.7079,1.7077,1.7076,1.7076,1.7088,1.7088,1.7088,1.7088,1.7013,1.7014,1.7028,1.7032,1.7044,1.7048,1.7061,1.7067,1.7072,1.7079,1.7078,1.7084,1.7074,1.7075,1.7087,1.7087,1.7087,1.7087,1.7087,1.6997,1.7,1.7007,1.7017,1.7023,1.7037,1.7043,1.7053,1.7062,1.7062,1.7065,1.7065,1.7067,1.7063,1.7063,1.7063,1.7063,1.7063,1.7063,1.6977,1.6986,1.699,1.7001,1.7007,1.7016,1.7032,1.7038,1.7047,1.7054,1.7054,1.7062,1.7072,1.7074,1.7063,1.7063,1.7063,1.7063,1.7063,1.6959,1.6966,1.6971,1.6978,1.6994,1.7001,1.7015,1.7027,1.7033,1.7036,1.7046,1.7051,1.7055,1.7056,1.7058,1.7043,1.7043,1.7043,1.7043,1.6945,1.6949,1.6959,1.6969,1.6979,1.6994,1.7001,1.7014,1.7028,1.7034,1.7038,1.7041,1.7042,1.7045,1.7047,1.7048,1.7032,1.7032,1.7032,1.6935,1.6941,1.6944,1.696,1.6975,1.6987,1.6994,1.7005,1.7023,1.7031,1.7038,1.7038,1.7044,1.7045,1.7052,1.7054,1.7057,0,0]}]]